Location: Unspecified
(0.0000°N, 0.0000°E)
Time: 10:17:23
(UTC+00:00)

ARIANE 1 DEB - Pass Details

Date: 14 February 2026
Orbit: 1090 x 21662 km, 16.1° (Epoch: 9 December)

Event Time Altitude Azimuth Distance (km) Brightness Sun altitude
Rises 19:08:14 0° 282° (WNW) 7,277 ? -13.2°
Reaches altitude 10° 19:11:19 10° 281° (WNW) 7,009 ? -13.9°
Maximum altitude 19:52:53 80° 198° (SSW) 11,774 ? -24.0°
Drops below altitude 10° 00:38:36 10° 100° (E) 11,749 ? -75.9°
Sets 00:45:31 0° 97° (E) 11,277 ? -75.1°
